This demonstration page uses our WeatherBlox Daily Observations layout. Learn more.

Left ArrowRight Arrow

39.01783, -85.05884

Hourly Observations for October 1, 2015

Temp ( °F °C ) Dew Point ( °F °C ) Humidity (%) Winds ( mph kmh ) Pressure ( in mb ) Visibility ( mi km ) Precip ( " mm )
12:52 am 00:52 Cloudy 59 15 48 8.9 67 67 NE 17 28 30.04 1017 10 16 N/A
1:30 am 01:30 Cloudy 59 15 48 9 68 68 NE 13 20 30.06 1018 10 16 N/A
1:52 am 01:52 Cloudy 59 15 48 8.9 67 67 NE 12 19 30.04 1017 10 16 N/A
2:52 am 02:52 Cloudy 58 14.4 48 8.9 70 70 NNE 15 24 30.04 1017 10 16 N/A
3:52 am 03:52 Cloudy 58 14.4 48 8.9 70 70 NE 16 26 30.03 1017 10 16 N/A
4:52 am 04:52 Cloudy 56 13.3 49 9.4 77 77 NNE 14 22 30.03 1017 10 16 N/A
5:52 am 05:52 Cloudy 56 13.3 48 8.9 75 75 NNE 16 26 30.04 1017 10 16 N/A
6:52 am 06:52 Cloudy 55 12.8 48 8.9 77 77 NNE 15 24 30.05 1018 10 16 N/A
7:52 am 07:52 Mostly Cloudy 55 12.8 47 8.3 74 74 NNE 13 20 30.06 1018 10 16 N/A
8:06 am 08:06 Mostly Cloudy 55 13 46 8 72 72 NE 14 22 30.09 1019 10 16 N/A
8:52 am 08:52 Cloudy 55 12.8 46 7.8 72 72 NE 17 28 30.06 1018 10 16 N/A
9:52 am 09:52 Cloudy 56 13.3 46 7.8 70 70 NE 15 24 30.08 1019 10 16 N/A
10:52 am 10:52 Cloudy 57 13.9 45 7.2 64 64 NE 20 31 30.08 1019 10 16 N/A
11:52 am 11:52 Cloudy 59 15 45 7.2 60 60 NE 20 31 30.07 1018 10 16 N/A
12:52 pm 12:52 Cloudy with Light Rain 58 14.4 47 8.3 67 67 NE 14 22 30.08 1019 9 14 N/A
1:52 pm 13:52 Cloudy with Light Rain 57 13.9 47 8.3 69 69 NE 14 22 30.08 1019 10 16 N/A
2:52 pm 14:52 Cloudy with Light Rain 56 13.3 50 10 81 81 NNE 12 19 30.08 1019 7 11 0.03 0.76
3:52 pm 15:52 Cloudy 57 13.9 51 10.6 81 81 N 10 17 30.06 1018 10 16 0.01 0.25
4:52 pm 16:52 Cloudy 58 14.4 51 10.6 78 78 N 12 19 30.06 1018 10 16 N/A
5:52 pm 17:52 Mostly Cloudy 58 14.4 51 10.6 78 78 N 8 13 30.07 1018 10 16 N/A
6:52 pm 18:52 Mostly Cloudy 59 15 49 9.4 69 69 N 13 20 30.08 1019 10 16 N/A
7:52 pm 19:52 Mostly Cloudy 64 18 54 12 68 68 NE 8 13 30.00 1016 10 16 N/A
8:52 pm 20:52 Cloudy 58 14.4 48 8.9 70 70 NNE 15 24 30.10 1019 10 16 N/A
9:25 pm 21:25 Cloudy 57 14 48 9 72 72 NNE 20 31 30.12 1020 10 16 N/A
9:52 pm 21:52 Cloudy 57 13.9 48 8.9 72 72 NNE 16 26 30.11 1020 10 16 N/A
10:36 pm 22:36 Cloudy 57 14 48 9 72 72 NNE 16 26 30.12 1020 10 16 N/A
10:52 pm 22:52 Cloudy 57 13.9 48 8.9 72 72 NNE 17 28 30.11 1020 10 16 N/A
11:52 pm 23:52 Cloudy 57 13.9 48 8.9 72 72 NNE 14 22 30.11 1020 10 16 N/A

Powered by AerisWeather